Tracking 28790 objects as of 19-Apr-2024
HD Live streaming from Space Station
objects crossing your sky now

ARIANE 44L R/B

Track ARIANE 44L R/B now!
10-day predictions


NORAD ID: 27684
Int'l Code: 2003-007B
Perigee: 128.2 km
Apogee: 2,277.0 km
Inclination: 6.6 °
Period: 109.3 minutes
Semi major axis: 7573 km
RCS: 18.9128 m2 (large)
Launch date: February 15, 2003
Source: France (FR)
Launch site: FRENCH GUIANA (FRGUI)

Note: This is a ROCKET BODY
Your satellite tracking list
Your tracking list is empty




NASA's NSSDC Master Catalog

Two Line Element Set (TLE):
1 27684U 03007B   24109.75793890  .11906467 -18524-4  85759-3 0  9997
2 27684   6.6309 316.9257 1418648 282.3155  66.1263 13.17193405238836
Source of the keplerian elements: AFSPC